NOAA 16 DEB, 41132

Orbit data source: Space-Track

NOAA 16 DEB, 41132 is space debris in SSO originally from a launch on Thu, 21 Sep 2000 UTC launched from the Air Force Western Test Range (AFWTR). Debris objects in space refer to the collection of defunct objects orbiting the Earth. Examples of debris include non-operational satellites, rocket bodies, and fragments generated from explosions, collisions, or faulty payload assembly.

Loading next visibility...
NOAA 16 DEB details
Identifier
41132, 2000-055BP
Orbit
SSO
Last TLE update1 day ago
Origin
Flag of USNOAA (US)
ManufacturerUnknown
MissionSpacecraft
Bus & MotorUnknown
MassUnknown
Launch date (UTC)
2000-09-21 (24 years ago)
Launch vehicleUnknown
Launch site
Air Force Western Test Range (AFWTR)
Object type
Payload
Rocket body
Debris
Shape & HBRUnknown
Radar Cross SectionSmall (<0.1 m²)

Expand to show TLE details & history

TLE from 1 day ago
0 NOAA 16 DEB
1 41132U 00055BP  24360.17519974  .00029010  00000-0  78745-2 0  9994
2 41132  98.8428 135.8180 0038177 195.1817 164.8231 14.47058209471205
Epoch: 2024-12-25T04:12Z
Definitive object data (Epoch: 2024-12-25T04:12:17.257Z)
Latitude-0.00006°
Longitude-21.42662°
Altitude764.442 km
Speed7.458 km/s
True Right ascension09h 03m 16s
True Declination0° 00' 00"
Sunlit
Object was in full shadow at TLE epoch
Visualization TLE readout
Latitude-0.78112°
Longitude159.93245°
Altitude711.343 km
Speed7.514 km/s
Apparent Right ascension22h 54m 38s
Apparent Declination-22° 26' 44"
Sunlit
Object is in daylight
Visualization observer readout
Local Sidereal Time13:35:25
Azimuth74.967° E
Elevation-51.859°
Doppler factor1
Orbital elements
Apogee altitude759.548 km
Perigee altitude705.256 km
Semi-major axis7,110.539 km
Eccentricity0.0038177
Inclination98.8428°
RAAN135.818°
Arg. of periapsis195.1817°
True anomaly164.93711°
Mean anomaly164.8231°
Eccentric anomaly164.88016°
Mean motion3.61984 °/min
BSTAR0.0078745
Orbital period99.45 mins
Loading maneuver chart data...
Loading historical data...
Loading historical data...
Loading historical data...
Loading historical data...
Loading historical data...
Loading historical data...
Loading historical data...

NOAA 16 DEB Visibility forecast

Observer location: undefined°, undefined

Span
Click to sort rows by Start time (UTC) header in descending order
Start Az.
Max El. time (UTC)
Max El. Az.
Max El.
End time (UTC)
End Az.
9 mins2024-12-26 22:15:36.594Z12.362° NNE2024-12-26 22:19:36.594Z357.988° N43.681°2024-12-26 22:24:36.594Z197.301° SSW
8 mins2024-12-27 09:25:36.594Z175.561° S2024-12-27 09:29:36.594Z268.822° W43.123°2024-12-27 09:33:36.594Z339.821° N
|